FW2000 Weather Reports


Display with metric or nautical units.
time (UTC)temp
F
wind
direction
speed
MPH
gust
MPH
rain 1hr
in
rain 24hr
in
rain mn
in
humidity
%
barometer
mb
20260904093522 58 263 0.0 3.0 0.00 0.00 0.00 81 1011.5
20260904093023 58 269 1.0 3.0 0.00 0.00 0.00 80 1011.5
20260904092522 59 269 2.0 4.0 0.00 0.00 0.00 80 1011.5
20260904092020 59 272 2.0 4.0 0.00 0.00 0.00 78 1011.5
20260904091518 59 271 1.0 4.0 0.00 0.00 0.00 77 1011.5
20260904091017 60 273 2.0 4.0 0.00 0.00 0.00 75 1011.5
20260904090516 60 269 2.0 4.0 0.00 0.00 0.00 73 1011.5
20260904090016 60 265 1.0 3.0 0.00 0.00 0.00 72 1011.7
20260904085514 61 265 1.0 3.0 0.00 0.00 0.00 70 1011.6
20260904085013 61 267 1.0 4.0 0.00 0.00 0.00 68 1011.6
20260904084514 62 267 1.0 4.0 0.00 0.00 0.00 67 1011.5
20260904084013 62 101 0.0 2.0 0.00 0.00 0.00 63 1011.5
20260904083512 63 98 0.0 0.0 0.00 0.00 0.00 62 1011.6
20260904083113 63 98 0.0 0.0 0.00 0.00 0.00 62 1011.6
20260904082512 63 98 0.0 2.0 0.00 0.00 0.00 62 1011.7
20260904082011 63 98 0.0 4.0 0.00 0.00 0.00 61 1011.7
20260904081510 63 98 2.0 6.0 0.00 0.00 0.00 60 1011.6
20260904081010 63 98 2.0 6.0 0.00 0.00 0.00 60 1011.6
20260904080513 63 93 2.0 6.0 0.00 0.00 0.00 60 1011.7
20260904080010 63 97 2.0 6.0 0.00 0.00 0.00 61 1011.7
20260904075509 63 94 2.0 6.0 0.00 0.00 0.00 62 1011.7
20260904075008 63 94 2.0 7.0 0.00 0.00 0.00 62 1011.7
20260904074507 63 96 2.0 7.0 0.00 0.00 0.00 62 1011.6
20260904074006 62 130 2.0 4.0 0.00 0.00 0.00 64 1011.7
20260904073509 62 154 2.0 5.0 0.00 0.00 0.00 66 1011.6
20260904073010 62 144 2.0 6.0 0.00 0.00 0.00 67 1011.7
20260904072506 62 123 1.0 5.0 0.00 0.00 0.00 67 1011.8
20260904072005 62 167 1.0 3.0 0.00 0.00 0.00 68 1011.7
20260904071504 62 168 1.0 3.0 0.00 0.00 0.00 67 1011.7
20260904071004 62 209 0.0 2.0 0.00 0.00 0.00 66 1011.8
20260904070504 62 209 0.0 3.0 0.00 0.00 0.00 66 1011.9
20260904070002 62 209 1.0 3.0 0.00 0.00 0.00 66 1011.9
20260904065500 62 210 0.0 2.0 0.00 0.00 0.00 66 1011.8
20260904065001 62 210 1.0 3.0 0.00 0.00 0.00 66 1011.8
20260904064500 62 210 1.0 3.0 0.00 0.00 0.00 67 1011.9
20260904064003 63 212 0.0 2.0 0.00 0.00 0.00 67 1011.9
20260904063501 63 213 0.0 2.0 0.00 0.00 0.00 66 1011.9
20260904063107 63 213 0.0 2.0 0.00 0.00 0.00 66 1011.9
20260904062601 63 213 0.0 1.0 0.00 0.00 0.00 67 1012.0
20260904062100 63 213 0.0 0.0 0.00 0.00 0.00 67 1011.9
20260904061603 63 213 0.0 2.0 0.00 0.00 0.00 67 1012.0
20260904061100 63 213 0.0 2.0 0.00 0.00 0.00 67 1011.9
20260904060600 63 213 1.0 2.0 0.00 0.00 0.00 66 1012.0
20260904060105 63 213 0.0 0.0 0.00 0.00 0.00 67 1012.1
20260904055559 63 213 0.0 0.0 0.00 0.00 0.00 66 1012.1
20260904055059 63 213 0.0 0.0 0.00 0.00 0.00 67 1012.1
20260904054559 63 213 0.0 1.0 0.00 0.00 0.00 66 1012.1
20260904054059 63 213 0.0 1.0 0.00 0.00 0.00 66 1012.1
20260904053558 63 213 0.0 0.0 0.00 0.00 0.00 66 1012.1
20260904053100 63 213 0.0 3.0 0.00 0.00 0.00 66 1012.1
20260904052558 63 213 1.0 3.0 0.00 0.00 0.00 66 1012.1
20260904052058 63 213 0.0 3.0 0.00 0.00 0.00 65 1012.1
20260904051607 63 214 0.0 2.0 0.00 0.00 0.00 65 1012.2
20260904051057 63 214 0.0 2.0 0.00 0.00 0.00 65 1012.3
20260904050558 63 214 0.0 2.0 0.00 0.00 0.00 65 1012.3
20260904050101 63 214 0.0 0.0 0.00 0.00 0.00 65 1012.3
20260904045557 63 214 0.0 1.0 0.00 0.00 0.00 64 1012.3
20260904045057 63 214 0.0 1.0 0.00 0.00 0.00 64 1012.3
20260904044557 63 214 0.0 2.0 0.00 0.00 0.00 63 1012.3
20260904044057 64 214 0.0 2.0 0.00 0.00 0.00 63 1012.3
20260904043556 64 214 0.0 2.0 0.00 0.00 0.00 62 1012.3
20260904043056 64 214 0.0 2.0 0.00 0.00 0.00 63 1012.3
20260904042556 64 214 0.0 0.0 0.00 0.00 0.00 62 1012.2
20260904042056 64 214 0.0 0.0 0.00 0.00 0.00 61 1012.1
20260904041555 64 214 0.0 2.0 0.00 0.00 0.00 60 1012.1
20260904041055 64 214 0.0 2.0 0.00 0.00 0.00 60 1012.0
20260904040555 64 214 0.0 1.0 0.00 0.00 0.00 60 1012.1
20260904040055 64 214 0.0 4.0 0.00 0.00 0.00 59 1012.1
20260904035554 64 214 0.0 4.0 0.00 0.00 0.00 58 1012.0
20260904035054 65 224 1.0 4.0 0.00 0.00 0.00 58 1012.0
20260904034554 65 243 1.0 3.0 0.00 0.00 0.00 57 1012.0
20260904034057 65 250 1.0 4.0 0.00 0.00 0.00 56 1012.0
20260904033556 65 255 1.0 4.0 0.00 0.00 0.00 54 1012.0
20260904033054 66 252 2.0 8.0 0.00 0.00 0.00 53 1011.9
20260904032554 66 259 3.0 8.0 0.00 0.00 0.00 51 1011.8
20260904032053 67 267 2.0 5.0 0.00 0.00 0.00 46 1011.8
20260904031558 67 271 2.0 4.0 0.00 0.00 0.00 44 1011.9
20260904031054 67 217 0.0 3.0 0.00 0.00 0.00 43 1011.8
20260904030553 67 217 1.0 4.0 0.00 0.00 0.00 43 1011.8
20260904030053 67 214 1.0 4.0 0.00 0.00 0.00 42 1011.8
20260904025553 67 215 0.0 3.0 0.00 0.00 0.00 42 1011.8
20260904025053 67 214 1.0 3.0 0.00 0.00 0.00 42 1011.8
20260904024552 67 215 1.0 5.0 0.00 0.00 0.00 41 1011.8
20260904024051 68 219 2.0 5.0 0.00 0.00 0.00 40 1011.9
20260904023551 68 229 1.0 4.0 0.00 0.00 0.00 40 1011.8
20260904023051 68 230 1.0 4.0 0.00 0.00 0.00 40 1011.9
20260904022551 69 221 1.0 5.0 0.00 0.00 0.00 40 1011.9
20260904022051 69 210 2.0 5.0 0.00 0.00 0.00 39 1011.8
20260904021551 69 218 1.0 5.0 0.00 0.00 0.00 39 1011.9
20260904021049 70 246 1.0 4.0 0.00 0.00 0.00 39 1011.9
20260904020549 70 238 1.0 4.0 0.00 0.00 0.00 39 1012.1
20260904020049 70 275 1.0 4.0 0.00 0.00 0.00 39 1012.1
20260904015548 70 276 1.0 5.0 0.00 0.00 0.00 39 1012.2
20260904015048 70 267 1.0 7.0 0.00 0.00 0.00 39 1012.2
20260904014603 70 257 2.0 5.0 0.00 0.00 0.00 39 1012.1
20260904014048 70 259 1.0 7.0 0.00 0.00 0.00 39 1012.1
20260904013548 71 221 3.0 8.0 0.00 0.00 0.00 39 1012.1
20260904013047 72 205 3.0 9.0 0.00 0.00 0.00 39 1012.3
20260904012546 72 187 4.0 9.0 0.00 0.00 0.00 39 1012.2
20260904012046 72 227 3.0 10.0 0.00 0.00 0.00 39 1012.3
20260904011546 72 275 2.0 7.0 0.00 0.00 0.00 39 1012.3
20260904011045 71 213 3.0 9.0 0.00 0.00 0.00 40 1012.2
20260904010545 71 277 4.0 8.0 0.00 0.00 0.00 40 1012.2
20260904010055 72 241 3.0 8.0 0.00 0.00 0.00 38 1012.2
20260904005548 72 277 2.0 9.0 0.00 0.00 0.00 38 1012.2
20260904005044 72 209 2.0 9.0 0.00 0.00 0.00 39 1012.3
20260904004544 73 263 2.0 8.0 0.00 0.00 0.00 40 1012.3
20260904004042 73 183 1.0 8.0 0.00 0.00 0.00 40 1012.2
20260904003542 72 240 2.0 8.0 0.00 0.00 0.00 41 1012.3
20260904003042 72 279 4.0 8.0 0.00 0.00 0.00 42 1012.4
20260904002542 71 196 2.0 9.0 0.00 0.00 0.00 43 1012.4
20260904002042 71 256 2.0 9.0 0.00 0.00 0.00 43 1012.5
20260904001543 72 248 2.0 7.0 0.00 0.00 0.00 42 1012.5
20260904001040 72 236 3.0 10.0 0.00 0.00 0.00 41 1012.5
20260904000540 73 217 5.0 10.0 0.00 0.00 0.00 39 1012.5
20260904000047 74 288 2.0 7.0 0.00 0.00 0.00 40 1012.6
20260903235542 74 282 2.0 10.0 0.00 0.00 0.00 40 1012.8
20260903235038 75 192 5.0 11.0 0.00 0.00 0.00 39 1012.7
20260903234538 75 242 5.0 11.0 0.00 0.00 0.00 39 1012.7
20260903234038 75 255 5.0 11.0 0.00 0.00 0.00 40 1012.7
20260903233539 75 242 6.0 10.0 0.00 0.00 0.00 41 1012.7
20260903233041 75 278 3.0 9.0 0.00 0.00 0.00 41 1012.8
20260903232536 75 234 5.0 11.0 0.00 0.00 0.00 41 1012.7
20260903232035 75 217 4.0 11.0 0.00 0.00 0.00 43 1012.8
20260903231534 74 203 3.0 12.0 0.00 0.00 0.00 44 1012.8
20260903231034 74 177 7.0 12.0 0.00 0.00 0.00 43 1012.8
20260903230534 75 213 3.0 11.0 0.00 0.00 0.00 43 1012.8
20260903230033 76 196 4.0 9.0 0.00 0.00 0.00 42 1012.8
20260903225535 76 224 3.0 9.0 0.00 0.00 0.00 42 1013.0
20260903225032 75 294 5.0 9.0 0.00 0.00 0.00 43 1013.1
20260903224531 75 287 5.0 10.0 0.00 0.00 0.00 43 1013.2
20260903224031 75 232 5.0 10.0 0.00 0.00 0.00 43 1013.2
20260903223530 75 333 4.0 9.0 0.00 0.00 0.00 43 1013.3
20260903223035 74 223 5.0 10.0 0.00 0.00 0.00 44 1013.2
20260903222532 74 176 4.0 11.0 0.00 0.00 0.00 44 1013.3
20260903222029 75 219 3.0 14.0 0.00 0.00 0.00 42 1013.3
20260903221529 75 216 5.0 14.0 0.00 0.00 0.00 42 1013.4
20260903221029 76 171 6.0 11.0 0.00 0.00 0.00 42 1013.4
20260903220528 75 241 3.0 15.0 0.00 0.00 0.00 43 1013.4
20260903220027 75 275 6.0 15.0 0.00 0.00 0.00 43 1013.4
20260903215527 75 297 3.0 10.0 0.00 0.00 0.00 44 1013.4
20260903215027 75 228 5.0 10.0 0.00 0.00 0.00 44 1013.3
20260903214526 75 274 5.0 12.0 0.00 0.00 0.00 43 1013.4
20260903214026 75 206 4.0 12.0 0.00 0.00 0.00 43 1013.4
20260903213526 76 265 5.0 13.0 0.00 0.00 0.00 42 1013.3
20260903213025 76 209 5.0 11.0 0.00 0.00 0.00 42 1013.3
20260903212524 75 184 4.0 11.0 0.00 0.00 0.00 43 1013.3
20260903212024 75 290 6.0 12.0 0.00 0.00 0.00 43 1013.3
20260903211524 75 287 4.0 13.0 0.00 0.00 0.00 42 1013.4
20260903211024 75 211 6.0 13.0 0.00 0.00 0.00 42 1013.3
20260903210523 75 271 6.0 15.0 0.00 0.00 0.00 41 1013.3
20260903210023 76 225 6.0 15.0 0.00 0.00 0.00 40 1013.3
20260903205523 76 252 4.0 12.0 0.00 0.00 0.00 39 1013.4
20260903205022 77 196 5.0 12.0 0.00 0.00 0.00 38 1013.4
20260903204521 76 254 5.0 12.0 0.00 0.00 0.00 39 1013.4
20260903204021 76 274 6.0 11.0 0.00 0.00 0.00 38 1013.4
20260903203520 76 221 5.0 13.0 0.00 0.00 0.00 35 1013.4
20260903203032 75 208 3.0 18.0 0.00 0.00 0.00 36 1013.4
20260903202519 75 246 8.0 17.0 0.00 0.00 0.00 38 1013.6
20260903202022 76 192 4.0 12.0 0.00 0.00 0.00 40 1013.7
20260903201519 76 211 4.0 11.0 0.00 0.00 0.00 39 1013.6
20260903201017 76 201 4.0 12.0 0.00 0.00 0.00 38 1013.7
20260903200517 76 176 7.0 12.0 0.00 0.00 0.00 35 1013.9
20260903200017 76 205 5.0 11.0 0.00 0.00 0.00 34 1013.8
20260903195515 76 198 5.0 10.0 0.00 0.00 0.00 35 1013.9
20260903195014 74 159 5.0 11.0 0.00 0.00 0.00 36 1014.0
20260903194514 74 217 5.0 12.0 0.00 0.00 0.00 38 1014.0
20260903194013 75 184 6.0 12.0 0.00 0.00 0.00 38 1014.0
20260903193513 76 201 5.0 11.0 0.00 0.00 0.00 38 1014.0
20260903193012 74 250 4.0 13.0 0.00 0.00 0.00 38 1014.1
20260903192511 74 207 8.0 13.0 0.00 0.00 0.00 39 1014.1
20260903192010 74 175 7.0 15.0 0.00 0.00 0.00 38 1014.1
20260903191510 75 180 6.0 10.0 0.00 0.00 0.00 38 1014.2
20260903191008 74 232 5.0 10.0 0.00 0.00 0.00 39 1014.2
20260903190509 74 216 5.0 12.0 0.00 0.00 0.00 40 1014.2
20260903190006 73 272 7.0 12.0 0.00 0.00 0.00 40 1014.4
20260903185505 73 258 6.0 11.0 0.00 0.00 0.00 40 1014.4
20260903185008 74 222 4.0 11.0 0.00 0.00 0.00 40 1014.5
20260903184503 74 229 4.0 10.0 0.00 0.00 0.00 40 1014.6
20260903184001 74 216 3.0 12.0 0.00 0.00 0.00 39 1014.6
20260903183502 73 264 2.0 12.0 0.00 0.00 0.00 40 1014.7
20260903183101 73 243 5.0 10.0 0.00 0.00 0.00 39 1014.7
20260903182603 73 279 2.0 10.0 0.00 0.00 0.00 39 1014.7
20260903182058 73 246 3.0 10.0 0.00 0.00 0.00 40 1014.8
20260903181558 72 163 3.0 8.0 0.00 0.00 0.00 41 1014.9
20260903181057 72 207 3.0 11.0 0.00 0.00 0.00 41 1014.9
20260903180556 71 214 7.0 11.0 0.00 0.00 0.00 41 1015.0
20260903180059 72 211 4.0 7.0 0.00 0.00 0.00 40 1015.0
20260903175553 72 156 3.0 8.0 0.00 0.00 0.00 39 1015.0
20260903175052 73 200 2.0 5.0 0.00 0.00 0.00 40 1015.1
20260903174553 73 200 1.0 5.0 0.00 0.00 0.00 40 1015.0
20260903174051 73 169 0.0 4.0 0.00 0.00 0.00 39 1015.1
20260903173550 75 171 0.0 4.0 0.00 0.00 0.00 38 1015.2
20260903173049 74 88 1.0 4.0 0.00 0.00 0.00 38 1015.2
20260903172547 74 71 0.0 7.0 0.00 0.00 0.00 39 1015.2
20260903172045 73 32 2.0 7.0 0.00 0.00 0.00 39 1015.2
20260903171553 73 44 1.0 6.0 0.00 0.00 0.00 40 1015.4
20260903171044 72 44 3.0 6.0 0.00 0.00 0.00 41 1015.4
20260903170543 72 56 2.0 8.0 0.00 0.00 0.00 42 1015.4
20260903170040 71 63 4.0 8.0 0.00 0.00 0.00 41 1015.4
20260903165540 71 67 3.0 9.0 0.00 0.00 0.00 42 1015.5
20260903165039 71 48 4.0 6.0 0.00 0.00 0.00 42 1015.4
20260903164543 70 74 3.0 8.0 0.00 0.00 0.00 43 1015.4
20260903164035 70 46 4.0 8.0 0.00 0.00 0.00 42 1015.4
20260903163534 70 24 3.0 6.0 0.00 0.00 0.00 43 1015.4
20260903163033 69 15 2.0 7.0 0.00 0.00 0.00 42 1015.4
20260903162531 69 51 3.0 7.0 0.00 0.00 0.00 42 1015.5
20260903162032 69 36 2.0 5.0 0.00 0.00 0.00 43 1015.5
20260903161533 68 53 1.0 5.0 0.00 0.00 0.00 44 1015.5
20260903161027 67 43 2.0 5.0 0.00 0.00 0.00 45 1015.6
20260903160526 67 65 2.0 4.0 0.00 0.00 0.00 45 1015.6
20260903160050 67 85 2.0 4.0 0.00 0.00 0.00 45 1015.6
20260903155524 66 90 2.0 6.0 0.00 0.00 0.00 46 1015.6
20260903155024 65 113 2.0 6.0 0.00 0.00 0.00 47 1015.7
20260903154520 65 123 2.0 4.0 0.00 0.00 0.00 47 1015.7
20260903154020 65 119 1.0 4.0 0.00 0.00 0.00 47 1015.7
20260903153518 64 98 2.0 4.0 0.00 0.00 0.00 48 1015.7
20260903153020 63 98 1.0 3.0 0.00 0.00 0.00 50 1015.8
20260903152518 63 98 1.0 3.0 0.00 0.00 0.00 50 1015.8
20260903152015 62 102 0.0 3.0 0.00 0.00 0.00 51 1015.7
20260903151512 62 88 1.0 4.0 0.00 0.00 0.00 52 1015.7
20260903151011 61 89 2.0 4.0 0.00 0.00 0.00 52 1015.6
20260903150509 61 71 1.0 5.0 0.00 0.00 0.00 53 1015.7
20260903150022 60 67 3.0 5.0 0.00 0.00 0.00 53 1015.6
20260903145505 60 70 1.0 5.0 0.00 0.00 0.00 54 1015.6
20260903145008 59 73 2.0 5.0 0.00 0.00 0.00 55 1015.6
20260903144505 58 83 3.0 5.0 0.00 0.00 0.00 55 1015.6
20260903144002 58 80 2.0 5.0 0.00 0.00 0.00 57 1015.6
20260903143500 57 56 2.0 5.0 0.00 0.00 0.00 57 1015.5
20260903143110 57 99 2.0 4.0 0.00 0.00 0.00 58 1015.5
20260903142602 56 98 2.0 4.0 0.00 0.00 0.00 59 1015.5
20260903142056 56 146 0.0 2.0 0.00 0.00 0.00 59 1015.5
20260903141556 56 118 0.0 2.0 0.00 0.00 0.00 58 1015.4
20260903141056 56 118 0.0 3.0 0.00 0.00 0.00 58 1015.4
20260903140554 56 118 1.0 4.0 0.00 0.00 0.00 58 1015.4
20260903140106 56 88 0.0 5.0 0.00 0.00 0.00 58 1015.4
20260903135551 56 98 3.0 6.0 0.00 0.00 0.00 59 1015.3
20260903135051 56 109 2.0 4.0 0.00 0.00 0.00 59 1015.3
20260903134555 56 79 1.0 6.0 0.00 0.00 0.00 59 1015.3
20260903134049 56 79 3.0 6.0 0.00 0.00 0.00 59 1015.3
20260903133549 56 94 2.0 6.0 0.00 0.00 0.00 58 1015.3
20260903133058 56 82 2.0 6.0 0.00 0.00 0.00 58 1015.3
20260903132550 56 87 2.0 6.0 0.00 0.00 0.00 58 1015.3
20260903132048 56 108 2.0 4.0 0.00 0.00 0.00 58 1015.3
20260903131549 56 101 1.0 5.0 0.00 0.00 0.00 58 1015.4
20260903131048 56 71 2.0 4.0 0.00 0.00 0.00 59 1015.4
20260903130549 56 86 3.0 6.0 0.00 0.00 0.00 59 1015.4
20260903130048 56 100 2.0 6.0 0.00 0.00 0.00 59 1015.4
20260903125547 56 90 3.0 6.0 0.00 0.00 0.00 59 1015.4
20260903125047 56 88 3.0 6.0 0.00 0.00 0.00 59 1015.5
20260903124553 56 68 2.0 6.0 0.00 0.00 0.00 59 1015.5
20260903124046 56 74 3.0 5.0 0.00 0.00 0.00 59 1015.5
20260903123549 56 80 2.0 5.0 0.00 0.00 0.00 59 1015.4
20260903123046 56 63 1.0 6.0 0.00 0.00 0.00 59 1015.4
20260903122546 56 84 2.0 6.0 0.00 0.00 0.00 59 1015.4
20260903122046 56 126 3.0 8.0 0.00 0.00 0.00 59 1015.4
20260903121545 56 80 3.0 8.0 0.00 0.00 0.00 59 1015.4
20260903121045 56 78 4.0 6.0 0.00 0.00 0.00 59 1015.5
20260903120544 56 55 3.0 6.0 0.00 0.00 0.00 58 1015.6
20260903120058 56 71 3.0 6.0 0.00 0.00 0.00 59 1015.5
20260903115542 56 76 4.0 6.0 0.00 0.00 0.00 59 1015.7
20260903115047 56 82 3.0 7.0 0.00 0.00 0.00 59 1015.7
20260903114542 56 96 4.0 7.0 0.00 0.00 0.00 59 1015.7
20260903114041 56 74 3.0 6.0 0.00 0.00 0.00 59 1015.7
20260903113540 56 92 4.0 7.0 0.00 0.00 0.00 59 1015.7
20260903113041 56 84 3.0 7.0 0.00 0.00 0.00 59 1015.9
20260903112541 56 89 4.0 7.0 0.00 0.00 0.00 59 1015.8
20260903112040 56 86 4.0 7.0 0.00 0.00 0.00 59 1015.9
20260903111539 56 90 4.0 7.0 0.00 0.00 0.00 59 1016.0
20260903111039 56 79 3.0 7.0 0.00 0.00 0.00 59 1016.0
20260903110538 56 105 3.0 7.0 0.00 0.00 0.00 59 1016.0
20260903110038 56 94 3.0 6.0 0.00 0.00 0.00 59 1016.1
20260903105536 56 86 4.0 6.0 0.00 0.00 0.00 59 1016.1
20260903105036 57 95 3.0 6.0 0.00 0.00 0.00 59 1016.2
20260903104545 57 102 3.0 6.0 0.00 0.00 0.00 59 1016.1
20260903104037 57 88 3.0 6.0 0.00 0.00 0.00 59 1016.1
20260903103534 57 86 3.0 5.0 0.00 0.00 0.00 59 1016.1
20260903103035 57 76 3.0 5.0 0.00 0.00 0.00 59 1016.1
20260903102535 57 79 4.0 5.0 0.00 0.00 0.00 59 1016.0
20260903102036 57 84 3.0 6.0 0.00 0.00 0.00 59 1016.0
20260903101534 57 85 2.0 6.0 0.00 0.00 0.00 59 1016.0
20260903101033 56 78 3.0 6.0 0.00 0.00 0.00 60 1016.0
20260903100533 56 68 4.0 6.0 0.00 0.00 0.00 60 1016.1
20260903100033 56 73 4.0 7.0 0.00 0.00 0.00 60 1016.0
20260903095531 56 86 2.0 6.0 0.00 0.00 0.00 60 1016.1
20260903095031 56 106 2.0 6.0 0.00 0.00 0.00 60 1016.1
20260903094536 56 100 2.0 6.0 0.00 0.00 0.00 60 1016.1
20260903094030 56 78 2.0 4.0 0.00 0.00 0.00 60 1016.2